Location: Fennell Observatory
(35.2597°N, 89.5125°W)
Time: 13:24:31
(UTC-06:00)

Daily predictions for brighter satellites

Satellite Brightness Start Highest point End
(mag) Time Altitude Azimuth Time Altitude Azimuth Time Altitude Azimuth
Cosmos 1709 Rocket 4.2 18:05:20 10° SSE 18:11:14 47° E 18:17:07 10° NNE
Cosmos 1484 Rocket 3.5 18:09:45 10° S 18:13:40 62° W 18:17:34 10° NNW
CZ-4 R/B 4.3 18:11:47 10° SSW 18:15:08 24° W 18:18:31 10° NW
Cosmos 1954 Rocket 4.0 18:13:25 10° S 18:18:30 62° ESE 18:23:38 10° NNE
Meteor 1-18 Rocket 4.3 18:13:20 10° N 18:18:55 90° SW 18:24:33 10° S
Cosmos 2322 Rocket 2.3 18:15:44 10° NNW 18:21:22 87° WSW 18:26:59 10° SSE
Meteor 1-28 Rocket 3.6 18:18:06 10° N 18:21:54 70° WNW 18:25:41 10° SSW
SJ-6B 3.5 18:19:02 10° SE 18:22:42 35° ENE 18:26:18 10° N
Cosmos 2151 Rocket 3.6 18:18:15 10° S 18:22:45 87° E 18:27:17 10° N
Tiangong 2 1.0 18:20:19 10° WNW 18:23:23 69° NNE 18:26:27 10° ESE
Okean 1 Rocket 3.9 18:19:56 10° SSE 18:23:48 29° E 18:27:41 10° NNE
TSX-5 3.5 18:23:12 10° SSW 18:26:25 70° WNW 18:29:36 10° NNE
FENGYUN 3A 4.4 18:21:51 10° SE 18:26:34 32° ENE 18:31:17 10° N
Hubble Space Telescope 3.0 18:27:00 10° S 18:28:37 12° SSE 18:30:14 10° SE
Gbstr 26 Del rocket 2.7 18:28:58 10° SW 18:32:55 84° NW 18:36:39 10° NE
NOAA 12 4.1 18:32:14 10° SSE 18:37:33 79° ENE 18:42:53 10° N
Cosmos 2322 4.1 18:32:14 10° N 18:37:37 41° ENE 18:42:58 10° SE
Cosmos 1238 Rocket 2.5 18:36:18 10° NNE 18:39:05 37° E 18:41:54 10° SSE
GPS 2-04 Rocket1 3.3 18:39:29 10° SW 18:43:37 49° SSE 18:46:29 19° E
Cosmos 1025 Rocket 4.2 18:43:14 10° NNE 18:46:41 22° ENE 18:48:42 17° ESE
Meteor 1-13 Rocket 4.2 18:41:28 10° N 18:47:00 64° E 18:52:36 10° SSE
GEOS 3 Rocket 3.6 18:42:14 10° NE 18:47:29 69° ESE 18:52:45 10° SSW
METEOR-M 4.2 18:43:08 10° SSE 18:48:28 83° WSW 18:53:50 10° NNW
H-2A R/B 3.6 18:46:26 12° SE 18:49:16 27° ENE 18:52:29 10° NNE
Cosmos 1536 3.0 18:45:36 10° SSE 18:49:24 45° E 18:53:13 10° NNE
COSMOS 2428 3.6 18:47:58 10° N 18:52:52 29° ENE 18:55:38 20° ESE
Okean 1-7 Rocket 4.1 18:48:50 10° NNE 18:53:00 36° ENE 18:57:07 10° SE
Cosmos 1633 2.9 18:50:11 10° SSW 18:53:50 68° W 18:57:31 10° N
Meteor 2-4 Rocket 3.9 18:50:44 10° N 18:56:01 45° ENE 19:01:09 10° SSE
Cosmos 2237 Rocket 4.2 18:55:52 10° NE 18:55:53 10° NE 18:55:53 10° NE
Cosmos 1536 Rocket 4.4 18:57:04 10° NNW 19:01:26 54° W 19:05:47 10° S
Cosmos 1741 Rocket 3.9 18:56:48 10° S 19:01:59 71° ESE 19:07:11 10° NNE
Cosmos 2219 3.1 19:04:35 10° SSW 19:10:18 73° ESE 19:16:02 10° NNE
Cosmos 2360 Rocket 2.2 19:06:31 10° NNW 19:12:12 86° WSW 19:17:52 10° SSE
Cosmos 2219 Rocket 3.3 19:09:22 10° N 19:13:35 23° NE 19:13:35 23° NE
Cosmos 2227 Rocket 4.0 19:12:34 10° SSE 19:13:25 13° SE 19:13:25 13° SE
Meteor 1-11 Rocket 4.4 19:14:12 10° SSW 19:19:52 60° W 19:25:42 10° N
Cosmos 1570 Rocket 3.9 19:15:39 10° N 19:20:51 64° ENE 19:24:15 22° SSE
BREEZE-M DEB (TANK) 3.1 19:19:07 10° WSW 19:23:14 45° NW 19:23:46 38° N
Resurs 01 Rocket 1.6 19:20:27 10° SSE 19:24:51 84° WSW 19:29:17 10° NNW
DELTA 2 R/B (1) 3.6 19:23:57 10° WNW 19:29:34 77° SSW 19:31:31 42° SE
Abrixas rocket 2.6 19:26:16 10° WSW 19:29:34 57° NW 19:29:39 57° NNW
Spot 1 4.2 19:31:45 50° NNE 19:31:45 50° NNE 19:35:06 10° N
Cosmos 1610 Rocket 4.4 19:24:59 10° S 19:31:06 60° E 19:37:11 10° NNE
ATLAS CENTAUR R/B 2.0 19:26:20 10° SSW 19:30:46 49° S 19:30:46 49° S
BREEZE-M DEB (TANK) 4.5 19:29:32 10° NW 19:33:15 42° NE 19:35:01 36° ENE
ALOS 3.1 19:29:18 10° S 19:33:49 50° W 19:38:21 10° NNW
Cosmos 2327 Rocket 4.5 19:30:49 10° S 19:37:00 86° W 19:43:21 10° N
Spot 2 Rocket 3.8 19:34:45 10° S 19:39:45 65° WSW 19:44:48 10° NNW
Helios 1A 3.3 19:40:55 52° N 19:40:55 52° N 19:44:11 10° N
Resurs 1-3 4.0 19:38:15 10° S 19:42:35 62° W 19:46:57 10° NNW
Cosmos 2333 Rocket 3.2 19:42:32 10° N 19:46:14 31° NNE 19:46:14 31° NNE
Cosmos 2208 Rocket 4.1 19:42:27 10° NNW 19:47:54 77° WSW 19:50:31 31° S
USA 229 DEB 3.8 19:46:25 10° NNW 19:53:31 62° NE 19:54:32 56° E
USA 229 3.8 19:46:31 10° NNW 19:53:37 61° NE 19:54:36 56° E
Helios 1B rocket 3.0 19:54:33 41° NNW 19:55:41 56° WNW 19:59:45 10° SSW
Envisat 4.4 19:58:42 27° N 19:58:42 27° N 20:01:02 10° N
Tiangong 2 4.1 19:57:43 10° WSW 19:58:32 13° WSW 19:58:32 13° WSW
Hubble Space Telescope 3.3 20:05:48 10° SW 20:06:47 15° SW 20:06:47 15° SW
BREEZE-M DEB (TANK) 3.5 20:14:47 10° NW 20:17:20 58° WNW 20:17:20 58° WNW
Nadezhda 3 Rocket 4.3 20:16:41 10° N 20:21:25 56° NNW 20:21:25 56° NNW
Cosmos 2154 Rocket 4.4 20:22:15 10° SSW 20:28:31 62° W 20:34:48 10° N
Atlas Centaur 2 4.4 20:24:35 10° SSW 20:26:14 15° SSW 20:26:14 15° SSW
COSMOS 2428 4.0 20:32:01 10° NW 20:37:06 34° WSW 20:37:44 33° WSW
Cosmos 2237 Rocket 4.0 20:35:40 10° NNW 20:37:44 23° NNW 20:37:44 23° NNW
Cosmos 2219 Rocket 4.0 20:52:38 10° NW 20:55:22 27° NW 20:55:22 27° NW
